BEESAT-4 (41619 NORAD) Tracking and Keplerian Element Data

This shows tracking and keplerian element data for the satellite.

Feedback or suggestion? Click here.




ElementValue
Catalog41619
NameBEESAT-4
Epoch Orbit16291
Epoch Day229.16578416
Epoch Year2019
RAAN290.2709
Inclination97.3633
Eccentricity0.0011705
Argument of Perigee166.1941
Mean Anonmoly193.9619
Mean Motion15.23224472
Decay Rate7.44E-06
L11 41619U 16040W 19229.16578416 .00000744 00000-0 34355-4 0 9992
L22 41619 97.3633 290.2709 0011705 166.1941 193.9619 15.23224472162914

Live tracking and technical data element details for BEESAT-4 (NORAD 41619). BEESAT-4 can be tracked NOW for your location showing map with azimuth and elevation plus other details from your city location.

Track the satellite on the map from your city or location and see movement details for azimuth, elevation, latitude, longitude, range, height, and movement on the map or in text.







IsCatalogInMostPopularTable: catalog: 41619, numindb: 262
Update: records affected: 1



GetName: 41619 BEESAT-4

Hit Count: updated at: Tue, 20 Aug 2019 18:33:15 GMT